Location: Eexterzandvoort
(53.0303°N, 6.7884°E)
Time: 20:28:26
(UTC+00:00)

Cosmos 2322 Rocket - Pass Details

Date: 19 May 2025
Orbit: 832 x 850 km, 71.0° (Epoch: 15 June)

Event Time Altitude Azimuth Distance (km) Brightness Sun altitude
Rises 22:48:35 0° 328° (NNW) 3,419 6.7 -16.5°
Reaches altitude 10° 22:51:03 10° 329° (NNW) 2,478 5.7 -16.5°
Maximum altitude 22:56:46 86° 59° (ENE) 852 2.2 -16.6°
Enters shadow 23:00:19 24° 147° (SSE) 1,681 3.2 -16.7°
